SCP
1 0 0 0 0 0 0 0 0 0 0 0 0 0 0 0 0 0 0 0 0 0 0 0 0 0 0 0 0 0 0 0 0 0 0 0 0 0 0 -0 -0 0 0
1 0 0 0 0 0 0 0 0 0 0 0 0 0 0 0 0 0 0 0 0 0 0 0 0 0 0 0 0 0 0 0 0 0 0 0 0 0 0 -0 0 0 0
0 0 0 0 0 0 0 0 0 0 0 0 0 0 0 0 0 0 0 0 0 0 0 0 0 0 0 0 0 0 0 0 0 0 0 0 0 0 -0 0 0 0 0
0 0 0 0 0 0 0 0 0 0 0 0 0 0 0 0 0 0 0 0 0 0 0 0 0 0 0 0 0 0 0 0 0 0 0 0 0 0 0 0 0 0 0
1 1 1 1 1 0 0 0 0 0 0 0 0 0 0 0 0 0 0 0 0 0 0 0 0 0 0 0 0 0 0 0 0 0 0 0 0 0 0 0 0 0 0
1 1 2 2 1 1 0 0 0 0 0 0 0 0 0 0 0 0 0 0 0 0 0 0 0 0 0 0 0 -0 0 0 0 0 0 0 0 0 0 0 0 0 0
2 2 3 2 1 0 0 0 0 0 0 0 0 0 0 0 0 0 0 0 0 0 0 0 0 0 0 0 0 0 0 0 0 0 0 0 0 0 0 0 0 0 0
5 4 4 2 1 0 0 0 0 0 0 0 0 0 0 0 0 0 0 0 0 0 0 0 0 0 0 0 0 0 0 0 0 -0 0 0 0 0 0 0 0 0 0
4 3 3 1 0 0 0 0 0 0 0 0 0 0 0 0 0 0 0 0 0 0 0 0 0 0 0 0 0 0 -0 -0 -0 -0 0 0 0 0 0 0 0 0 0
2 2 1 0 0 0 0 0 0 0 0 0 0 0 0 0 0 0 0 0 -0 -0 0 0 0 0 0 0 0 0 0 0 0 0 0 0 0 0 0 0 0 0 0
1 0 0 0 0 0 0 0 0 0 0 0 0 0 0 0 0 0 0 0 -0 -0 0 0 0 0 0 -0 0 0 0 0 0 0 0 0 0 0 0 0 0 0 0
0 0 0 0 0 0 0 0 0 0 0 0 0 0 0 0 0 0 0 -0 -0 -0 0 0 0 0 -0 -0 -0 0 0 0 0 0 0 0 0 0 0 0 0 0 0
0 0 0 0 0 0 0 0 0 0 0 0 0 0 0 0 0 0 0 -0 -0 -0 0 0 0 -0 -0 -0 -0 -0 -0 0 0 0 0 0 0 0 0 0 0 0 0
0 0 0 0 0 0 0 0 0 0 0 0 0 0 0 0 0 0 -0 -0 -0 -0 -0 -0 -0 -0 -0 -0 -0 -0 -0 -0 0 0 0 0 0 0 0 0 0 0 0
0 0 0 0 0 0 0 0 0 0 0 0 0 0 0 0 0 -0 -0 -0 -0 -0 -0 -0 -0 -0 -0 -0 -0 -0 -0 -0 0 0 0 0 0 0 0 0 0 0 0
0 0 0 0 0 0 0 0 0 0 0 0 0 0 0 0 0 0 0 -0 -0 0 -0 -0 -0 -0 -0 -0 -0 -0 0 0 0 0 0 0 0 0 0 0 0 0 0
0 0 0 0 0 0 0 0 0 0 0 0 0 0 0 0 0 0 0 0 -0 0 -0 -0 -0 -0 -0 0 -0 -0 -0 0 0 0 0 0 0 0 0 0 0 0 0
0 0 0 0 0 0 0 0 0 0 0 0 0 -0 -0 -0 -0 0 0 0 0 -0 -0 -0 -0 -0 -0 0 -0 0 0 0 0 0 0 0 0 0 0 0 0 0 0
0 0 0 0 0 0 0 0 0 0 0 0 0 -0 -0 -0 0 0 0 0 0 -0 -0 -0 -0 -0 -0 -0 0 0 0 0 0 0 0 0 0 0 0 0 0 0 0
0 0 0 0 0 0 0 0 0 0 0 0 0 0 0 0 0 0 0 0 0 0 -0 -0 -0 -0 -0 -0 0 0 0 0 0 0 0 0 0 0 0 0 0 0 0
0 0 0 0 0 0 0 0 0 0 0 0 0 0 0 0 0 0 0 0 0 -0 -0 -0 -0 -0 -0 -0 0 0 0 0 0 0 0 0 0 0 0 0 0 0 0
0 0 0 0 0 0 0 0 0 0 0 0 0 0 0 0 0 0 0 0 0 -0 -0 -0 -0 -0 -0 0 0 0 0 0 0 0 0 0 0 0 0 0 0 0 0
0 0 0 0 0 0 0 0 0 0 0 0 0 0 0 0 0 0 0 0 0 0 -0 -0 -0 -0 0 0 0 0 0 0 0 0 -0 0 0 0 0 0 0 0 0
0 0 0 0 0 0 0 0 0 0 0 0 -0 0 0 0 0 0 0 0 0 0 -0 -0 -0 -0 -0 0 0 0 0 0 0 0 0 0 0 0 0 0 0 0 0
0 0 0 0 0 0 0 0 0 0 0 -0 0 0 0 0 0 0 0 0 0 0 0 0 0 0 0 0 0 0 0 0 0 0 0 0 0 0 0 0 0 0 0
0 0 0 0 0 0 0 0 0 0 0 -0 0 0 0 0 0 0 0 0 0 0 0 0 0 0 0 0 0 0 0 0 0 0 0 0 0 0 0 0 0 0 0
Wind_Speed_500mb
102 90 84 91 81 58 56 59 60 61 61 58 55 49 39 31 22 22 18 12 12 14 12 10 10 10 9 5 15 17 20 15 20 28 23 35 26 39 43 50 51 41 40
88 85 81 81 68 63 67 64 63 69 62 67 63 54 41 36 27 15 10 10 13 13 14 10 5 5 9 17 10 3 12 15 19 24 25 32 33 38 46 50 49 38 39
71 66 68 68 63 63 72 66 69 69 63 64 62 54 44 38 19 15 7 15 12 18 15 8 4 9 10 7 6 12 18 19 9 17 24 28 36 46 50 45 40 39 45
66 62 66 65 57 49 57 68 77 68 69 70 65 54 40 34 23 18 22 19 12 19 8 10 4 11 15 10 11 12 12 14 16 17 25 30 37 35 42 49 46 48 51
74 64 60 55 52 43 48 63 76 74 74 72 63 47 41 34 19 21 18 7 10 11 12 8 9 8 12 12 12 8 14 18 19 21 32 36 33 38 45 52 50 52 50
60 69 64 62 58 49 49 66 80 79 76 71 61 53 51 34 32 32 19 7 15 14 11 6 12 11 16 18 8 9 13 17 15 19 30 28 32 37 43 46 49 52 50
56 65 72 73 68 63 60 71 81 87 80 76 67 62 54 33 39 27 13 20 29 23 18 16 11 9 17 12 3 4 5 11 16 26 18 21 32 36 40 38 40 43 42
59 60 70 77 69 68 71 75 82 85 84 81 74 66 46 39 34 28 27 28 26 22 22 25 13 11 12 9 2 5 7 10 14 16 15 23 26 33 30 33 34 36 37
58 58 61 70 68 73 80 83 81 86 89 84 76 67 47 41 30 31 35 38 28 23 14 12 7 5 15 8 7 8 16 20 18 17 17 17 23 24 27 33 37 38 46
52 51 51 56 69 77 81 90 89 85 88 81 68 52 51 39 38 43 48 39 31 24 14 18 7 9 13 5 10 12 18 18 21 19 17 24 16 23 31 31 41 42 45
36 39 45 54 65 79 84 89 82 84 82 69 61 60 49 47 48 51 46 48 37 38 31 30 18 10 5 7 11 15 15 18 19 18 20 21 17 17 26 27 33 39 43
35 40 48 57 67 76 79 77 82 82 77 71 65 57 51 49 46 49 56 49 38 31 38 42 26 14 9 14 14 15 16 18 18 18 17 20 19 32 18 25 29 34 32
44 49 55 56 57 48 69 79 80 74 76 71 68 58 55 45 43 47 58 47 29 17 24 27 19 14 18 15 15 15 18 20 18 15 18 21 26 29 27 28 26 39 35
50 56 59 56 51 51 62 78 80 77 78 79 73 63 54 50 49 58 70 49 39 30 29 27 18 19 20 17 13 8 8 12 9 8 15 17 21 20 26 33 36 37 41
50 53 55 50 46 54 68 79 73 71 72 87 67 61 57 57 59 63 61 50 40 48 40 32 32 26 21 18 14 15 9 6 2 3 8 16 19 23 25 28 37 42 42
46 51 53 52 58 68 74 73 66 63 73 57 52 47 47 44 52 49 45 47 43 44 46 42 35 29 22 19 14 19 17 15 12 7 13 20 28 23 23 27 33 41 47
38 43 54 58 63 73 75 68 71 67 54 51 49 44 46 48 33 36 48 51 47 42 42 42 40 29 25 20 20 21 16 20 12 12 20 23 25 24 26 29 33 39 49
35 38 50 63 72 69 66 73 75 71 70 63 56 55 52 49 46 40 53 53 47 46 43 44 45 32 36 29 27 26 25 27 24 29 24 28 29 29 34 35 42 40 45
40 52 63 62 63 69 75 81 75 67 60 67 60 57 52 49 48 48 51 51 50 52 47 51 46 37 34 36 30 29 32 35 37 25 26 30 28 30 32 37 46 40 48
47 52 58 63 62 68 78 72 58 55 60 61 62 55 50 51 68 64 68 58 55 54 53 51 47 41 31 35 34 36 38 38 36 26 25 27 29 30 37 35 37 38 50
42 54 64 69 73 75 78 69 61 64 66 58 59 60 63 60 62 65 65 61 58 57 57 60 49 45 43 45 43 40 41 30 19 21 27 34 36 30 29 35 43 44 48
58 61 68 70 68 81 80 67 62 67 65 71 62 66 66 61 62 59 58 57 56 53 56 61 51 39 23 41 45 44 41 35 29 30 32 30 30 33 42 35 42 49 54
52 57 58 66 58 80 73 63 62 65 58 61 60 57 62 68 71 65 59 50 49 46 39 53 58 47 37 40 40 41 42 44 47 45 37 34 35 37 32 43 48 50 45
40 46 58 66 66 64 69 62 63 59 51 56 63 67 60 55 57 49 43 35 36 38 38 36 40 39 41 46 45 45 44 39 33 32 36 38 39 40 42 43 47 50 40
43 45 50 68 60 64 66 65 61 64 61 48 44 57 56 59 55 59 50 45 46 43 49 44 43 41 42 46 46 45 42 37 35 34 39 45 48 49 49 47 48 48 40
53 55 62 66 65 63 69 70 62 59 60 45 38 38 39 39 46 46 35 55 58 54 41 46 46 49 50 47 46 47 49 48 49 44 47 54 59 53 50 53 48 46 39
Wind_Direction_500mb
224 232 225 218 217 221 223 218 213 210 214 210 205 204 214 205 192 181 190 224 239 274 266 265 280 315 327 275 281 296 295 305 322 312 325 352 339 336 336 338 341 347 350
226 227 223 218 220 224 221 214 211 208 216 212 204 205 216 204 191 188 219 263 217 240 251 287 261 261 309 337 353 32 337 344 346 345 352 350 346 343 341 339 344 351 352
226 231 224 225 221 218 216 211 211 212 214 205 203 206 211 208 198 239 167 199 226 250 263 236 240 328 351 9 319 333 328 332 311 346 349 348 340 339 342 350 4 7 11
214 217 221 225 223 220 215 211 211 213 210 201 201 205 226 202 206 208 206 232 264 236 232 197 170 356 20 12 354 343 358 20 20 359 350 334 335 358 14 7 8 12 9
207 212 221 228 231 220 210 207 209 213 211 205 202 208 212 202 218 202 214 185 241 221 156 194 239 324 5 15 6 19 14 18 6 348 355 2 20 13 7 5 3 3 8
208 208 218 229 228 222 215 202 204 209 209 208 208 215 200 206 191 194 212 129 153 159 161 204 248 307 351 353 15 53 351 346 358 357 355 10 9 2 355 356 358 359 356
213 211 212 222 226 222 218 207 211 212 211 208 207 200 198 198 188 182 144 168 174 182 193 213 234 257 333 343 129 221 297 346 357 1 33 7 349 0 346 341 346 356 353
213 217 215 221 224 218 217 214 211 212 209 207 201 200 198 187 188 159 177 184 195 194 206 221 224 294 338 6 318 284 238 344 39 67 9 355 353 357 354 349 355 350 357
214 218 225 227 233 228 218 213 212 209 205 200 196 192 186 182 181 172 177 191 198 201 216 176 195 333 358 13 35 39 96 91 61 32 12 17 3 4 359 9 11 3 360
208 216 224 232 237 226 220 210 209 210 204 194 187 183 174 174 174 181 183 199 181 190 211 228 268 332 347 40 76 104 106 86 64 50 34 13 14 9 359 14 4 354 354
215 224 229 230 225 219 213 208 210 204 196 183 179 176 175 175 184 187 185 181 187 192 218 237 246 285 304 107 101 102 106 93 67 41 22 12 15 13 4 9 15 7 7
217 223 227 225 213 212 211 207 206 199 186 177 174 173 177 181 192 185 181 184 194 210 221 236 229 260 175 111 115 101 71 93 65 36 21 14 18 5 2 12 13 359 7
215 220 221 221 215 221 216 208 199 192 179 176 176 178 177 182 198 195 185 185 179 177 202 188 219 240 169 139 120 98 79 75 64 39 33 22 16 24 13 357 10 2 12
221 214 214 214 206 211 213 214 200 187 182 181 180 182 183 191 196 192 187 182 182 187 203 225 218 169 162 157 154 164 75 67 59 7 14 11 7 5 5 13 8 2 360
220 214 210 208 213 212 211 205 199 195 196 188 187 187 192 198 195 192 191 190 196 203 211 197 179 177 176 189 193 208 216 177 14 250 300 328 332 340 347 356 351 351 351
217 207 210 207 210 201 197 189 192 196 187 192 194 200 199 203 189 193 195 197 200 197 202 194 189 194 208 219 212 237 231 229 261 320 292 309 329 322 330 337 343 343 341
225 221 210 210 200 197 191 185 177 177 191 191 201 194 185 178 181 198 197 190 191 198 206 201 212 217 209 213 226 237 254 257 255 305 289 315 333 335 329 332 335 326 326
224 216 209 204 199 191 187 188 181 184 187 186 177 180 188 195 193 199 194 199 205 208 216 215 214 217 210 218 231 239 240 243 249 283 277 299 315 319 319 318 332 329 323
229 209 206 200 193 191 190 185 187 190 190 183 183 190 189 196 193 206 210 210 213 219 224 213 212 211 218 219 230 239 244 254 269 268 257 277 303 303 307 318 327 331 336
230 221 209 198 194 194 189 187 189 190 190 197 194 192 194 194 203 208 210 215 225 230 224 218 215 213 217 221 245 243 249 262 278 253 282 289 297 295 290 309 315 324 327
227 224 212 200 196 193 189 191 192 194 193 200 198 202 207 203 201 204 212 224 228 224 214 206 212 215 229 239 235 250 260 267 256 262 274 285 289 292 313 307 306 324 334
217 215 208 205 202 194 195 195 188 197 198 197 206 212 208 212 214 218 224 230 231 229 221 218 219 220 246 229 245 250 258 261 264 270 274 277 286 290 300 299 307 319 321
219 221 207 214 211 202 201 189 199 201 201 201 200 208 211 218 225 229 232 238 236 226 219 219 217 223 228 249 252 253 256 261 263 267 256 271 275 294 291 301 307 313 314
224 228 217 211 201 201 197 200 201 201 185 196 209 217 223 222 222 216 209 209 227 224 214 204 207 222 232 245 252 257 261 259 257 250 256 261 268 270 293 303 308 309 309
222 221 217 207 200 199 201 199 195 193 196 213 228 230 223 221 229 221 226 229 234 251 235 223 226 234 241 248 254 258 257 257 258 259 265 271 266 283 284 294 305 306 298
212 210 205 203 202 198 191 190 191 193 193 213 245 230 214 223 223 221 235 236 230 233 234 236 245 244 243 249 258 259 261 263 264 267 266 267 272 277 284 281 293 301 297
Wind_Speed_850mb
102 90 84 91 81 58 56 59 60 61 61 58 55 49 39 31 22 22 18 12 12 14 12 10 10 10 9 5 15 17 20 15 20 28 23 35 26 39 43 50 51 41 40
88 85 81 81 68 63 67 64 63 69 62 67 63 54 41 36 27 15 10 10 13 13 14 10 5 5 9 17 10 3 12 15 19 24 25 32 33 38 46 50 49 38 39
71 66 68 68 63 63 72 66 69 69 63 64 62 54 44 38 19 15 7 15 12 18 15 8 4 9 10 7 6 12 18 19 9 17 24 28 36 46 50 45 40 39 45
66 62 66 65 57 49 57 68 77 68 69 70 65 54 40 34 23 18 22 19 12 19 8 10 4 11 15 10 11 12 12 14 16 17 25 30 37 35 42 49 46 48 51
74 64 60 55 52 43 48 63 76 74 74 72 63 47 41 34 19 21 18 7 10 11 12 8 9 8 12 12 12 8 14 18 19 21 32 36 33 38 45 52 50 52 50
60 69 64 62 58 49 49 66 80 79 76 71 61 53 51 34 32 32 19 7 15 14 11 6 12 11 16 18 8 9 13 17 15 19 30 28 32 37 43 46 49 52 50
56 65 72 73 68 63 60 71 81 87 80 76 67 62 54 33 39 27 13 20 29 23 18 16 11 9 17 12 3 4 5 11 16 26 18 21 32 36 40 38 40 43 42
59 60 70 77 69 68 71 75 82 85 84 81 74 66 46 39 34 28 27 28 26 22 22 25 13 11 12 9 2 5 7 10 14 16 15 23 26 33 30 33 34 36 37
58 58 61 70 68 73 80 83 81 86 89 84 76 67 47 41 30 31 35 38 28 23 14 12 7 5 15 8 7 8 16 20 18 17 17 17 23 24 27 33 37 38 46
52 51 51 56 69 77 81 90 89 85 88 81 68 52 51 39 38 43 48 39 31 24 14 18 7 9 13 5 10 12 18 18 21 19 17 24 16 23 31 31 41 42 45
36 39 45 54 65 79 84 89 82 84 82 69 61 60 49 47 48 51 46 48 37 38 31 30 18 10 5 7 11 15 15 18 19 18 20 21 17 17 26 27 33 39 43
35 40 48 57 67 76 79 77 82 82 77 71 65 57 51 49 46 49 56 49 38 31 38 42 26 14 9 14 14 15 16 18 18 18 17 20 19 32 18 25 29 34 32
44 49 55 56 57 48 69 79 80 74 76 71 68 58 55 45 43 47 58 47 29 17 24 27 19 14 18 15 15 15 18 20 18 15 18 21 26 29 27 28 26 39 35
50 56 59 56 51 51 62 78 80 77 78 79 73 63 54 50 49 58 70 49 39 30 29 27 18 19 20 17 13 8 8 12 9 8 15 17 21 20 26 33 36 37 41
50 53 55 50 46 54 68 79 73 71 72 87 67 61 57 57 59 63 61 50 40 48 40 32 32 26 21 18 14 15 9 6 2 3 8 16 19 23 25 28 37 42 42
46 51 53 52 58 68 74 73 66 63 73 57 52 47 47 44 52 49 45 47 43 44 46 42 35 29 22 19 14 19 17 15 12 7 13 20 28 23 23 27 33 41 47
38 43 54 58 63 73 75 68 71 67 54 51 49 44 46 48 33 36 48 51 47 42 42 42 40 29 25 20 20 21 16 20 12 12 20 23 25 24 26 29 33 39 49
35 38 50 63 72 69 66 73 75 71 70 63 56 55 52 49 46 40 53 53 47 46 43 44 45 32 36 29 27 26 25 27 24 29 24 28 29 29 34 35 42 40 45
40 52 63 62 63 69 75 81 75 67 60 67 60 57 52 49 48 48 51 51 50 52 47 51 46 37 34 36 30 29 32 35 37 25 26 30 28 30 32 37 46 40 48
47 52 58 63 62 68 78 72 58 55 60 61 62 55 50 51 68 64 68 58 55 54 53 51 47 41 31 35 34 36 38 38 36 26 25 27 29 30 37 35 37 38 50
42 54 64 69 73 75 78 69 61 64 66 58 59 60 63 60 62 65 65 61 58 57 57 60 49 45 43 45 43 40 41 30 19 21 27 34 36 30 29 35 43 44 48
58 61 68 70 68 81 80 67 62 67 65 71 62 66 66 61 62 59 58 57 56 53 56 61 51 39 23 41 45 44 41 35 29 30 32 30 30 33 42 35 42 49 54
52 57 58 66 58 80 73 63 62 65 58 61 60 57 62 68 71 65 59 50 49 46 39 53 58 47 37 40 40 41 42 44 47 45 37 34 35 37 32 43 48 50 45
40 46 58 66 66 64 69 62 63 59 51 56 63 67 60 55 57 49 43 35 36 38 38 36 40 39 41 46 45 45 44 39 33 32 36 38 39 40 42 43 47 50 40
43 45 50 68 60 64 66 65 61 64 61 48 44 57 56 59 55 59 50 45 46 43 49 44 43 41 42 46 46 45 42 37 35 34 39 45 48 49 49 47 48 48 40
53 55 62 66 65 63 69 70 62 59 60 45 38 38 39 39 46 46 35 55 58 54 41 46 46 49 50 47 46 47 49 48 49 44 47 54 59 53 50 53 48 46 39
Wind_Direction_850mb
224 232 225 218 217 221 223 218 213 210 214 210 205 204 214 205 192 181 190 224 239 274 266 265 280 315 327 275 281 296 295 305 322 312 325 352 339 336 336 338 341 347 350
226 227 223 218 220 224 221 214 211 208 216 212 204 205 216 204 191 188 219 263 217 240 251 287 261 261 309 337 353 32 337 344 346 345 352 350 346 343 341 339 344 351 352
226 231 224 225 221 218 216 211 211 212 214 205 203 206 211 208 198 239 167 199 226 250 263 236 240 328 351 9 319 333 328 332 311 346 349 348 340 339 342 350 4 7 11
214 217 221 225 223 220 215 211 211 213 210 201 201 205 226 202 206 208 206 232 264 236 232 197 170 356 20 12 354 343 358 20 20 359 350 334 335 358 14 7 8 12 9
207 212 221 228 231 220 210 207 209 213 211 205 202 208 212 202 218 202 214 185 241 221 156 194 239 324 5 15 6 19 14 18 6 348 355 2 20 13 7 5 3 3 8
208 208 218 229 228 222 215 202 204 209 209 208 208 215 200 206 191 194 212 129 153 159 161 204 248 307 351 353 15 53 351 346 358 357 355 10 9 2 355 356 358 359 356
213 211 212 222 226 222 218 207 211 212 211 208 207 200 198 198 188 182 144 168 174 182 193 213 234 257 333 343 129 221 297 346 357 1 33 7 349 0 346 341 346 356 353
213 217 215 221 224 218 217 214 211 212 209 207 201 200 198 187 188 159 177 184 195 194 206 221 224 294 338 6 318 284 238 344 39 67 9 355 353 357 354 349 355 350 357
214 218 225 227 233 228 218 213 212 209 205 200 196 192 186 182 181 172 177 191 198 201 216 176 195 333 358 13 35 39 96 91 61 32 12 17 3 4 359 9 11 3 360
208 216 224 232 237 226 220 210 209 210 204 194 187 183 174 174 174 181 183 199 181 190 211 228 268 332 347 40 76 104 106 86 64 50 34 13 14 9 359 14 4 354 354
215 224 229 230 225 219 213 208 210 204 196 183 179 176 175 175 184 187 185 181 187 192 218 237 246 285 304 107 101 102 106 93 67 41 22 12 15 13 4 9 15 7 7
217 223 227 225 213 212 211 207 206 199 186 177 174 173 177 181 192 185 181 184 194 210 221 236 229 260 175 111 115 101 71 93 65 36 21 14 18 5 2 12 13 359 7
215 220 221 221 215 221 216 208 199 192 179 176 176 178 177 182 198 195 185 185 179 177 202 188 219 240 169 139 120 98 79 75 64 39 33 22 16 24 13 357 10 2 12
221 214 214 214 206 211 213 214 200 187 182 181 180 182 183 191 196 192 187 182 182 187 203 225 218 169 162 157 154 164 75 67 59 7 14 11 7 5 5 13 8 2 360
220 214 210 208 213 212 211 205 199 195 196 188 187 187 192 198 195 192 191 190 196 203 211 197 179 177 176 189 193 208 216 177 14 250 300 328 332 340 347 356 351 351 351
217 207 210 207 210 201 197 189 192 196 187 192 194 200 199 203 189 193 195 197 200 197 202 194 189 194 208 219 212 237 231 229 261 320 292 309 329 322 330 337 343 343 341
225 221 210 210 200 197 191 185 177 177 191 191 201 194 185 178 181 198 197 190 191 198 206 201 212 217 209 213 226 237 254 257 255 305 289 315 333 335 329 332 335 326 326
224 216 209 204 199 191 187 188 181 184 187 186 177 180 188 195 193 199 194 199 205 208 216 215 214 217 210 218 231 239 240 243 249 283 277 299 315 319 319 318 332 329 323
229 209 206 200 193 191 190 185 187 190 190 183 183 190 189 196 193 206 210 210 213 219 224 213 212 211 218 219 230 239 244 254 269 268 257 277 303 303 307 318 327 331 336
230 221 209 198 194 194 189 187 189 190 190 197 194 192 194 194 203 208 210 215 225 230 224 218 215 213 217 221 245 243 249 262 278 253 282 289 297 295 290 309 315 324 327
227 224 212 200 196 193 189 191 192 194 193 200 198 202 207 203 201 204 212 224 228 224 214 206 212 215 229 239 235 250 260 267 256 262 274 285 289 292 313 307 306 324 334
217 215 208 205 202 194 195 195 188 197 198 197 206 212 208 212 214 218 224 230 231 229 221 218 219 220 246 229 245 250 258 261 264 270 274 277 286 290 300 299 307 319 321
219 221 207 214 211 202 201 189 199 201 201 201 200 208 211 218 225 229 232 238 236 226 219 219 217 223 228 249 252 253 256 261 263 267 256 271 275 294 291 301 307 313 314
224 228 217 211 201 201 197 200 201 201 185 196 209 217 223 222 222 216 209 209 227 224 214 204 207 222 232 245 252 257 261 259 257 250 256 261 268 270 293 303 308 309 309
222 221 217 207 200 199 201 199 195 193 196 213 228 230 223 221 229 221 226 229 234 251 235 223 226 234 241 248 254 258 257 257 258 259 265 271 266 283 284 294 305 306 298
212 210 205 203 202 198 191 190 191 193 193 213 245 230 214 223 223 221 235 236 230 233 234 236 245 244 243 249 258 259 261 263 264 267 266 267 272 277 284 281 293 301 297